Regional Weather Roundup
Issued by NWS

Home | Current Version | Previous Version | Text Only | Print | Product List | Glossary On
Versions: 1 2 3 4 5 6 7 8 9 10 11 12 13 14 15 16 17 18 19 20 21 22 23 24 25 26 27 28 29 30 31 32 33 34 35 36 37 38 39 40 41 42 43 44 45 46 47 48 49 50
000
ASUS43 KMKX 100521
RWRWI

WISCONSIN REGIONAL WEATHER ROUNDUP
NATIONAL WEATHER SERVICE MILWAUKEE/SULLIVAN WI
1200 AM CDT THU JUL 10 2014

NOTE: "FAIR" INDICATES FEW OR NO CLOUDS BELOW 12,000 FEET WITH NO
SIGNIFICANT WEATHER AND/OR OBSTRUCTIONS TO VISIBILITY.

WIZ001-002-006>008-014>016-023>028-100600-
NORTHWEST WISCONSIN

CITY           SKY/WX    TMP DP  RH WIND       PRES   REMARKS
SUPERIOR ARPT  PTCLDY    49  49  99 CALM      30.02S
ASHLAND        CLEAR     48  47  96 CALM      30.05R FOG
HAYWARD        CLEAR     53  52  96 CALM      30.05R
SIREN          CLEAR     56  53  92 CALM      30.04R
RICE LAKE      CLEAR     57  54  89 CALM      30.06S
LADYSMITH      CLEAR     56  52  85 E5        30.08R
EAU CLAIRE     CLEAR     63  56  78 SE3       30.04R
MENOMONIE      CLEAR     60  57  89 CALM      30.04S
NEW RICHMOND   CLEAR     61  57  88 SE3       30.04R
OSCEOLA        CLEAR     61  59  94 CALM      30.05R
$$

WIZ003>005-009-010-017-018-100600-
NORTH CENTRAL WISCONSIN

CITY           SKY/WX    TMP DP  RH WIND       PRES   REMARKS
WOODRUFF       CLEAR     47  36  66 CALM      30.08R
RHINELANDER    CLEAR     45  43  93 CALM      30.08S FOG
EAGLE RIVER    CLEAR     46  46 100 CALM      30.07S FOG
LAND O LAKES   CLEAR     43  42  97 CALM      30.08S
PHILLIPS       CLEAR     50  50  99 CALM      30.07R
TOMAHAWK       CLEAR     45  44  95 CALM      30.08S
MEDFORD        CLEAR     51  50  96 CALM      30.08R
MERRILL        CLEAR     49  49  99 CALM      30.08R
$$

WIZ029-030-035-036-043>047-100600-
CENTRAL WISCONSIN

CITY           SKY/WX    TMP DP  RH WIND       PRES   REMARKS
WAUSAU         CLEAR     55  51  86 CALM      30.06S
MOSINEE        CLEAR     54  52  94 CALM      30.08S
MARSHFIELD     CLEAR     57  52  83 CALM      30.07R
STEVENS POINT  CLEAR     51  49  94 CALM      30.07S
WAUPACA        CLEAR     55  52  92 CALM      30.08R
WAUTOMA        CLEAR     54  53  96 CALM      30.08R
WISC RAPIDS    CLEAR     55  52  89 CALM      30.08R
CAMP DOUGLAS   FOG       52  52 100 SE3       30.07R VSB 1
$$

WIZ011>013-019>022-031-037>040-048>050-100600-
NORTHEAST WISCONSIN

CITY           SKY/WX    TMP DP  RH WIND       PRES   REMARKS
ANTIGO         CLEAR     49  48  97 CALM      30.08S
STURGEON BAY   CLEAR     54  50  87 CALM      30.07S
GREEN BAY      CLEAR     56  54  93 CALM      30.07R
MANITOWOC      CLEAR     54  53  97 CALM      30.07S
APPLETON       CLEAR     59  46  63 CALM      30.07R
CLINTONVILLE   CLEAR     52  50  93 CALM      30.07R
OSHKOSH        CLEAR     58  52  80 CALM      30.06R
$$

WIZ032>034-041-042-053>061-100600-
SOUTHWEST WISCONSIN

CITY           SKY/WX    TMP DP  RH WIND       PRES   REMARKS
LA CROSSE      CLEAR     63  57  81 SE7       30.04R
SPARTA         CLEAR     54  52  94 CALM      30.07R
VIROQUA        FAIR      60  54  79 SE5       30.07R
BOSCOBEL       CLEAR     57  55  93 CALM      30.06R
PRAIRIE DU CHI CLEAR     61  58  90 E3        30.05R
PLATTEVILLE    FAIR      63  56  78 E7        30.08R
$$

WIZ056-057-062-063-064-067-068-100600-
SOUTH CENTRAL WISCONSIN

CITY           SKY/WX    TMP DP  RH WIND       PRES   REMARKS
BARABOO/DELLS  CLEAR     57  52  84 CALM      30.07S
LONE ROCK      CLEAR     61  55  81 CALM      30.06R
WATERTOWN      CLEAR     56  54  92 CALM      30.07R
MADISON        CLEAR     57  54  89 CALM      30.07R
MIDDLETON      FAIR      55  55 100 CALM      30.08R
MONROE         CLEAR     64  50  59 E3        30.07S
JANESVILLE     CLEAR     59  55  88 CALM      30.07R
$$

WIZ051-052-058>065-066-070>072-100600-
SOUTHEAST WISCONSIN

CITY           SKY/WX    TMP DP  RH WIND       PRES   REMARKS
MILWAUKEE      NOT AVBL
WAUKESHA       CLEAR     54  50  87 CALM      30.08S
MILWAUKEE/TIMM CLEAR     61  54  77 CALM      30.07S
RACINE         CLEAR     60  56  86 CALM      30.08R
BURLINGTON     CLEAR     53  52  98 CALM      30.08R
KENOSHA        NOT AVBL
FOND DU LAC    CLEAR     55  52  89 CALM      30.07R
SHEBOYGAN      FOG       52  51  97 CALM      30.07S VSB 1/4
WEST BEND      CLEAR     54  52  94 CALM      30.07R
JUNEAU         CLEAR     58  41  53 CALM      30.08R
$$

LSZ147-162-100600-
LAKE SUPERIOR

STATION/POSITION TIME  TEMP    WIND        PRES    WAVE
                       AIR SEA DIR/SP/G            HT/PER
                 (UTC) (F)     (DEG/KT/KT) (MB)    (FT/S)
W MID LAKE BUOY  0450   44 38  230/  4/  4 1017.2R   0
DEVILS ISLAND    0500   63     180/  9/ 10 1016.9R
PORT WING        0400   59     150/  4/  6 1016.6R
SAXON HARBOR     0400          190/  6/  8 1016.9
$$

LMZ867-665-643>646-100600-
LAKE MICHIGAN

STATION/POSITION TIME  TEMP    WIND        PRES    WAVE
                       AIR SEA DIR/SP/G            HT/PER
                 (UTC) (F)     (DEG/KT/KT) (MB)    (FT/S)
N MID LAKE BUOY  0450   56 54     CALM     1017.7R   0
NORTHPORT PIER   0400   57      CALM  /  1 1017.6S
SISTER BAY       0410   56        CALM       N/A
KEWAUNEE LAKESHO 0500   55     300/  3/  4 1018.7R
SHEBOYGAN LAKESH 0500   58        CALM     1018.6R
PORT WASHINGTON  0400   58      CALM  /  1 1018.3R
ATWATER BUOY     0500   55     340/  4     1019.0
MILWAUKEE LAKESH 0500   61     350/  1/  2   N/A
S MID LAKE BUOY  0450   58 56   CALM  /  2 1018.2R   0
KENOSHA   LAKESH 0500   62     210/  3/  4   N/A
$$

TC  - TEMPERATURE IN CELSIUS
VSB - VISIBILITY IN STATUTE MILES
WCI - WIND CHILL INDEX
HX  - HEAT INDEX




USA.gov is the U.S. government's official web portal to all federal, state and local government web resources and services.